User: anonymous   Login
Location: Byszew
(52.1813°N, 19.2693°E)
Time: 05:38:38
(UTC+00:00)
Language:

HJ-1C - Orbit

View from above orbital plane
View from above orbital plane
View from above satellite
View from above satellite

Ground track
Ground track

The orbit data is extracted from the following two-line orbital elements,

1 38997U 12064A   21128.50960861  .00002408  00000-0  54290-4 0  9996
2 38997  97.1226 158.2822 0007252 261.6922 233.6799 15.44201285475914
Epoch (UTC): 08 May 2021 12:13:50
Eccentricity: 0.0007252
inclination: 97.1226°
perigee height: 429 km
apogee height: 438 km
right ascension of ascending node: 158.2822°
argument of perigee: 261.6922°
revolutions per day: 15.44201285
mean anomaly at epoch: 233.6799°
orbit number at epoch: 47591

The dashed part of the orbit path shows where the satellite is in the earth's shadow,  

DLR